Regional Weather Roundup
Issued by NWS Charleston, SC

Home | Current Version | Previous Version | Text Only | Print | Product List | Glossary On
Versions: 1 2 3 4 5 6 7 8 9 10 11 12 13 14 15 16 17 18 19 20 21 22 23 24 25 26 27 28 29 30 31 32 33 34 35 36 37 38 39 40 41 42 43 44 45 46 47 48 49 50
000
ASUS42 KCHS 190512
RWRCHS

REGIONAL WEATHER ROUNDUP
NATIONAL WEATHER SERVICE CHARLESTON SC
100 AM EDT SUN APR 19 2015

NOTE: "FAIR" INDICATES FEW OR NO CLOUDS BELOW 12,000 FEET WITH NO
SIGNIFICANT WEATHER AND/OR OBSTRUCTIONS TO VISIBILITY.

NOT ALL STATIONS ARE QUALITY CONTROLLED BY THE NATIONAL
WEATHER SERVICE. USE DATA WITH CAUTION...ESPECIALLY
DEWPOINT OBSERVATIONS.

SCZ027-030-031-034>040-042>050-190600-
...SOUTHEAST SOUTH CAROLINA...

CITY           SKY/WX    TMP DP  RH WIND       PRES   REMARKS
N CHARLESTON   CLOUDY    67  65  93 CALM      29.97F
WATERFRONT PRK   N/A     70 N/A N/A CALM        N/A
MOUNT PLEASANT FAIR      66  66 100 CALM      29.98F FOG
PINOPOLIS      NOT AVBL
MONCKS CORNER  FAIR      66  64  94 CALM      29.98F
SUMMERVILLE    CLOUDY    66  66 100 CALM      29.99F
BEAUFORT MCAS  CLOUDY    70  68  93 CALM      29.97F
BEAUFORT ARPT  MOCLDY    70  70 100 CALM      29.97F
HILTON HEAD IS CLOUDY    70  70 100 CALM      29.98F
WALTERBORO     PTCLDY    64  64 100 CALM      29.98F
ALLENDALE      CLOUDY    70  68  94 S6        29.96F

...SOUTHERN MIDLANDS AND PEE DEE...

CITY           SKY/WX    TMP DP  RH WIND       PRES   REMARKS
GEORGETOWN     NOT AVBL
KINGSTREE      NOT AVBL
ORANGEBURG     CLOUDY    68  65  90 S5        29.97F
BARNWELL       CLOUDY    70  70 100 S9        29.97F
AIKEN          CLOUDY    50  48  93 SE5       30.00S FOG
MANNING        RAIN      64  59  82 CALM      29.97F
COLUMBIA       CLOUDY    69  65  86 S7        29.95F
SUMTER         CLOUDY    68  65  93 SE6       29.96F
FLORENCE       CLOUDY    67  64  90 E6        29.98F
MYRTLE BEACH   CLOUDY    66  63  88 N3        30.01F
N MYRTLE BEACH MOCLDY    65  63  93 CALM      30.00R

$$

GAZ063-065-086>088-099>101-113>116-118-119-134>141-150-190600-
...SOUTHEAST GEORGIA...

CITY           SKY/WX    TMP DP  RH WIND       PRES   REMARKS
SAVANNAH ARPT  LGT RAIN  69  67  93 CALM      29.96F
HUNTER AAF     CLOUDY    70  70 100 E3        29.93F
FORT STEWART   CLOUDY    69  67  93 CALM      29.93F
STATESBORO       N/A     69  69 100 CALM      29.97R
SYLVANIA       CLOUDY    68  68  99 CALM      29.97F
CLAXTON        FAIR      70  70 100 CALM      29.96S

...CSRA...CENTRAL AND FAR SOUTHEAST GEORGIA...

CITY           SKY/WX    TMP DP  RH WIND       PRES   REMARKS
THOMSON        CLOUDY    64  64 100 CALM      30.00S
AUGUSTA-BUSH   CLOUDY    66  65  96 SE3       29.95S FOG
AUGUSTA-DANIEL CLOUDY    69  66  90 SE6       29.96S FOG
SWAINSBORO     NOT AVBL
VIDALIA        RAIN      72  72 100 CALM      29.96S
EASTMAN        CLOUDY    71  71 100 CALM      29.97F
HAZLEHURST     CLOUDY    73  72  98 CALM      29.94S
ALMA           CLOUDY    73  70  90 CALM      29.95S
WAYCROSS       CLOUDY    74  72  93 CALM      29.95F
JESUP          MOCLDY    72  72 100 CALM      29.96S
BAXLEY         CLOUDY    73  72  94 CALM      29.95S
BRUNSWICK      CLOUDY    72  70  94 CALM      29.96S
SAINT SIMONS   CLOUDY    71  70  96 CALM      29.96S

$$

SCZ027-028-034-036>038-045-046-048>050-GAZ119-141-190600-
...LAKE AND SUPPLEMENTAL COASTAL OBSERVATIONS...

STATION/POSITION TIME  TEMP    WIND        PRES    WAVE   SWELL
                       AIR SEA DIR/SP/G            HT/PER HT/PER/DIR
                 (UTC) (F)     (DEG/KT/KT) (MB)    (FT/S) (FT/S/D)
UPR LAKE MARION  NOT AVBL
WINYAH BAY       0345   64     310/  3     1014.0
LAKE MURRAY      0400   68      CALM  /  2 1014.2F
ACE BASIN NERRS  NOT AVBL
FORT PULASKI     0400   70 71  130/  2/  2 1015.3F
SAPELO ISLAND    0400   71     150/  1     1014.0F

$$

ANZ835-935-AMZ111-154-330-350-352-354-370-450-454-472-190600-
...C-MAN AND BUOY OBSERVATIONS...

STATION/POSITION TIME  TEMP    WIND        PRES    WAVE   SWELL
                       AIR SEA DIR/SP/G            HT/PER HT/PER/DIR
                 (UTC) (F)     (DEG/KT/KT) (MB)    (FT/S) (FT/S/D)
BUOY 41004       0450   73 75  190/  4/  6 1014.6F   3/ 8   3/ 8
BUOY 41008       0450   68 67   CALM  /  2 1014.6F   2/ 9   2/110/ 9
FOLLY BEACH CMAN 0400   67      40/  1/  2 1015.2F
CAPERS NEARSHORE NOT AVBL
FRIPP NEARSHORE  0400   68      CALM  /  2 1015.1R


STATION/POSITION TIME  TEMP    WIND        PRES    WAVE   SWELL
                       AIR SEA DIR/SP/G            HT/PER HT/PER/DIR
                 (UTC) (F)     (DEG/KT/KT) (MB)    (FT/S) (FT/S/D)
5E ST. MARYS GA  0421      71                N/A     2/ 9   2/100/11
FRYING PAN BUOY  0450   74 73  110/  6/  8 1015.5F   4/ 9   3/130/ 9
BUOY 41025       0450   71 76   40/  6/  8 1016.3R   4/13   5/ 80/13
CAPE LOOKOUT NC  0400   68      20/  3/  4 1015.7R
BUOY 41002       0450   72 75  320/  4/  4 1015.2F   5/14   5/ 60/14
BUOY 41010       0420   78 79  140/  6/  6 1015.5F
ST AUGUSTINE FL  0500   72 72  130/  5/  5 1015.2F


$$



USA.gov is the U.S. government's official web portal to all federal, state and local government web resources and services.